#timestamp,LO_Frequency,Hit,StdDev 
1585358175.7,286047044.1,P
1585358195.5,286047043.3,P
1585358215.4,286047045.6,P
1585358235.2,286047045.0,Y
1585358255.0,286047001.8,P
1585358255.9,286047001.8,N
1585358275.8,286047004.1,N
1585358295.6,286047005.6,N
1585358315.5,286047004.6,N
1585358335.3,286047005.1,N
1585358355.1,286047007.1,N
1585358375.9,286047009.2,N
1585358395.7,286047006.1,N
1585358415.5,286047009.2,N
1585358435.4,286047007.9,N
1585358455.2,286047010.0,N
1585358475.1,286047009.6,N
1585358476.0,286047009.6,N
1585358495.8,286047011.5,N
1585358515.6,286047013.6,N
1585358535.5,286047013.3,N
1585358555.3,286047013.2,N
1585358575.1,286047013.2,N
1585358595.9,286047012.6,N
1585358615.7,286047015.4,N
1585358635.6,286047014.5,N
1585358655.4,286047016.5,N
1585358675.2,286047015.7,N
1585358695.1,286047018.3,N
1585358696.0,286047018.3,N
1585358715.8,286047017.7,N
1585358735.6,286047019.9,N
1585358755.5,286047017.7,N
1585358775.3,286047020.4,N
1585358795.2,286047019.9,Y
1585358815.9,286047008.4,P
1585358835.7,286047010.7,P
1585358855.6,286047009.9,P
1585358875.4,286047009.7,Y
1585358895.3,286046999.7,P
1585358915.1,286047002.0,N
1585358916.0,286047002.0,N
1585358935.8,286047004.4,N
1585358955.7,286047003.6,N
1585358975.5,286047005.7,N
1585358995.3,286047005.5,N
1585359015.2,286047004.8,N
1585359035.0,286047007.2,N
1585359035.9,286047007.2,N
1585359055.8,286047008.7,Y
1585359075.6,286047003.3,P
1585359095.4,286047003.4,P
1585359115.3,286047005.2,P
1585359135.1,286047006.9,Y
1585359155.9,286047001.7,P
1585359175.7,286047004.0,P
1585359195.5,286047004.3,P
1585359215.4,286047003.5,Y
1585359235.2,286047000.8,P
1585359255.1,286047002.4,N
1585359256.0,286047002.4,N
1585359275.8,286047001.8,N
1585359295.6,286047001.4,N
1585359315.5,286047003.4,Y
1585359335.3,286047001.7,P
1585359355.1,286047004.2,P
1585359375.9,286047003.8,P
1585359395.7,286047003.3,Y
1585359415.6,286047004.0,P
1585359435.4,286047005.9,P
1585359455.2,286047003.6,N
1585359475.1,286047003.1,N
1585359476.0,286047003.1,N
1585359495.8,286047005.9,Y
1585359515.7,286047001.3,P
1585359535.5,286047001.8,N
1585359555.3,286047001.7,N
1585359575.2,286047005.9,Y
1585359595.0,286047001.3,P
1585359595.9,286047001.3,P
1585359615.8,286047003.8,P
1585359635.6,286047003.5,Y
1585359655.4,286047004.3,P
1585359675.3,286047003.4,P
1585359695.1,286047004.1,P
1585359715.8,286047003.5,Y
1585359735.7,286047000.2,P
1585359755.5,286047002.4,N
1585359775.4,286047002.1,N
1585359795.2,286047001.9,N
1585359815.0,286047003.7,Y
1585359815.9,286047003.7,P
1585359835.8,286047002.7,P
1585359855.6,286047002.7,P
1585359875.5,286047002.0,Y
1585359895.3,286046998.5,P
1585359915.1,286047000.9,N
1585359935.9,286047000.6,N
1585359955.7,286047000.2,N
1585359975.5,286047002.2,N
1585359995.4,286047001.7,N
1585360015.2,286047001.4,N
1585360035.1,286047001.7,N
1585360036.0,286047001.7,N
1585360055.8,286047003.1,N
1585360075.6,286047006.0,Y
1585360095.5,286047003.2,P
1585360115.3,286047003.1,P
1585360135.1,286047005.5,P
1585360155.9,286047005.0,Y
1585360175.7,286047001.7,P
1585360195.6,286047004.1,P
1585360215.4,286047003.4,P
1585360235.2,286047003.9,Y
1585360255.1,286047000.0,P
1585360256.0,286047000.0,N
1585360275.8,286046999.8,N
1585360295.7,286047002.5,N
1585360315.5,286047001.9,N
1585360335.3,286047001.9,N
1585360355.2,286047002.6,N
1585360375.0,286047004.0,Y
1585360375.9,286047004.0,P
1585360395.8,286047001.9,N
1585360415.6,286047001.4,N
1585360435.4,286047004.4,Y
1585360455.3,286047002.5,P
1585360475.1,286047002.3,P
1585360495.8,286047001.8,P
1585360515.7,286047003.9,Y
1585360535.5,286047002.0,P
1585360555.4,286047004.1,P
1585360575.2,286047004.1,P
1585360595.0,286047004.2,Y
1585360595.9,286047004.2,P
1585360615.8,286047011.9,P
1585360635.6,286047002.5,N
1585360655.5,286047002.8,N
1585360675.3,286047000.0,N
1585360695.1,286047002.6,N
1585360715.9,286047001.6,N
1585360735.7,286047002.1,N
1585360755.5,286047004.1,N
1585360775.4,286047005.5,N
1585360795.2,286047005.3,N
